{"data":{"norad_id":65372,"epoch":"2026-05-25T01:59:28.975200Z","epoch_age_seconds":61661,"freshness":"FRESH","line1":"1 65372U 25190X   26145.08297425  .00014573  00000+0  50272-3 0  9993","line2":"2 65372  53.1585 173.1685 0001548  75.0205 285.0967 15.30230575 41452","mean_motion":15.30230575,"eccentricity":0.0001548,"inclination_deg":53.1585,"raan_deg":173.1685,"arg_perigee_deg":75.0205,"mean_anomaly_deg":285.0967,"bstar":0.00050272,"rev_number":4145,"period_min":94.103465420563,"perigee_km":474.06289473189,"apogee_km":476.18466426923,"semimajor_km":6853.2607795006,"source":"CELESTRAK","updated_at":"2026-05-25T13:38:20.769720Z"}}